Tracking 27188 objects as of 1-Apr-2023
HD Live streaming from Space Station
objects crossing your sky now

STARLINK-3560

Track STARLINK-3560 now!
10-day predictions
STARLINK-3560 is classified as:


NORAD ID: 51859
Int'l Code: 2022-022H
Perigee: 546.0 km
Apogee: 547.7 km
Inclination: 53.2 °
Period: 95.4 minutes
Semi major axis: 6917 km
RCS: Unknown
Launch date: March 3, 2022
Source: United States (US)
Launch site: AIR FORCE EASTERN TEST RANGE (AFETR)
Your satellite tracking list
Your tracking list is empty




NASA's NSSDC Master Catalog

Two Line Element Set (TLE):
1 51859U 22022H   23090.17564437  .00004231  00000-0  28375-3 0  9995
2 51859  53.2137 152.8138 0001221  68.8721 291.2402 15.08838703 60949
Source of the keplerian elements: AFSPC